Weather History for Anchorage Merrill, AK

Change the Weather History Date:

Friday, March 23, 2012

  Actual Average Record
Temperature  
Mean Temperature 14 °F -  
Max Temperature 27 °F 33 °F 45 °F (1998)
Min Temperature 1 °F 18 °F 1 °F (2012)
Degree Days  
Heating Degree Days 51    
Moisture  
Dew Point 8 °F    
Average Humidity 71    
Maximum Humidity 84    
Minimum Humidity 51    
Precipitation  
Precipitation 0.00 in - - ()
Snow  
Snow 0.00 in - - ()
Snow Depth 26.00 in    
Sea Level Pressure  
Sea Level Pressure 30.02 in    
Wind  
Wind Speed 2 mph (North)    
Max Wind Speed 9 mph    
Max Gust Speed -    
Visibility 10 miles    
Events      
Averages and records for this station are not official NWS values.
T = Trace of Precipitation, MM = Missing Value Source: NWS Daily Summary

Daily Weather History Graph

Daily Weather History Graph

Search for Another Location

Airport:

Trip Planner

Search our weather history database for the weather conditions in past years. The results will help you decide how hot, cold, wet, or windy it might be!

Date:

Astronomy

Mar. 23, 2012 Rise Set
Actual Time 7:48 AM AKDT 8:23 PM AKDT
Civil Twilight 7:05 AM AKDT 9:07 PM AKDT
Nautical Twilight 6:12 AM AKDT 10:01 PM AKDT
Astronomical Twilight 5:13 AM AKDT 11:01 PM AKDT
Moon 7:30 AM AKDT (3/23) 10:39 PM AKDT (3/23)
Length of Visible Light 14h 02m
Length of Day
12h 35m
New Moon, 1% of the Moon is Illuminated
Mar 23
New Moon
Mar 30
First Quarter
Apr 6
Full
Apr 13
Last Quarter
Apr 20
New

Hourly Weather History & Observations

Time (AKDT) Temp. Windchill Dew Point Humidity Pressure Visibility Wind Dir Wind Speed Gust Speed Precip Events Conditions
12:53 AM 12.9 °F - 3.9 °F 67% 30.09 in 10.0 mi Calm Calm - N/A   Clear
1:53 AM 10.9 °F - 3.9 °F 73% 30.10 in 10.0 mi Calm Calm - N/A   Clear
2:53 AM 5.0 °F - 1.0 °F 84% 30.10 in 10.0 mi Calm Calm - N/A   Clear
3:53 AM 5.0 °F - -0.9 °F 76% 30.10 in 10.0 mi Calm Calm - N/A   Clear
4:53 AM 3.9 °F - -0.9 °F 80% 30.09 in 10.0 mi Calm Calm - N/A   Clear
5:53 AM 3.0 °F - -0.9 °F 84% 30.07 in 10.0 mi Calm Calm - N/A   Clear
6:53 AM 1.9 °F -5.6 °F -2.0 °F 83% 30.07 in 10.0 mi NE 3.5 mph - N/A   Clear
7:53 AM 5.0 °F - -0.0 °F 80% 30.08 in 10.0 mi Calm Calm - N/A   Scattered Clouds
8:53 AM 5.0 °F - 1.0 °F 84% 30.09 in 10.0 mi Calm Calm - N/A   Clear
9:53 AM 12.9 °F - 8.1 °F 81% 30.06 in 10.0 mi Calm Calm - N/A   Clear
10:53 AM 16.0 °F - 9.0 °F 74% 30.05 in 10.0 mi Calm Calm - N/A   Mostly Cloudy
11:53 AM 18.0 °F 11.1 °F 8.1 °F 65% 30.04 in 10.0 mi North 4.6 mph - N/A   Clear
11:54 AM 17.6 °F 12.3 °F 8.6 °F 68% 30.03 in 10.0 mi NNW 3.5 mph - N/A   Scattered Clouds
12:53 PM 19.0 °F 11.1 °F 9.0 °F 65% 30.04 in 10.0 mi North 5.8 mph - N/A   Scattered Clouds
1:53 PM 21.9 °F 14.5 °F 9.0 °F 58% 30.01 in 10.0 mi NNW 5.8 mph - N/A   Scattered Clouds
2:53 PM 23.0 °F 15.8 °F 8.1 °F 53% 29.99 in 10.0 mi North 5.8 mph - N/A   Overcast
3:53 PM 25.0 °F 19.3 °F 10.0 °F 53% 29.98 in 10.0 mi NNE 4.6 mph - N/A   Overcast
4:53 PM 26.1 °F 21.9 °F 10.0 °F 51% 29.96 in 10.0 mi North 3.5 mph - N/A   Overcast
5:53 PM 27.0 °F 18.7 °F 10.9 °F 51% 29.95 in 10.0 mi North 8.1 mph - N/A   Overcast
6:53 PM 26.1 °F 17.6 °F 14.0 °F 60% 29.94 in 10.0 mi NNW 8.1 mph - N/A   Overcast
7:53 PM 26.1 °F 17.6 °F 18.0 °F 71% 29.93 in 10.0 mi NNW 8.1 mph - N/A   Overcast
8:53 PM 25.0 °F 15.5 °F 19.0 °F 78% 29.93 in 10.0 mi NNW 9.2 mph - N/A   Overcast
9:53 PM 24.1 °F 18.2 °F 19.0 °F 81% 29.93 in 10.0 mi NNW 4.6 mph - N/A   Overcast
10:53 PM 24.1 °F 17.0 °F 19.0 °F 81% 29.92 in 10.0 mi North 5.8 mph - N/A   Overcast
11:53 PM 24.1 °F 15.2 °F 19.0 °F 81% 29.91 in 10.0 mi NNW 8.1 mph - N/A   Overcast